Change the Weather History Date:

Tuesday, February 9, 2010

  Actual Average Record
Temperature  
Mean Temperature 35 °F 39 °F  
Max Temperature 40 °F 50 °F 71 °F (1957)
Min Temperature 30 °F 29 °F -2 °F (1895)
Degree Days  
Heating Degree Days 30 26  
Month to date heating degree days 277 238  
Since 1 July heating degree days 2959 2765  
Cooling Degree Days 0 0  
Month to date cooling degree days 0 0  
Year to date cooling degree days 0 0  
Moisture  
Dew Point 31 °F    
Average Humidity 88    
Maximum Humidity 100    
Minimum Humidity 75    
Precipitation  
Precipitation 0.09 in 0.13 in 1.05 in (1944)
Month to date precipitation 2.69 1.19  
Year to date precipitation 9.69 4.86  
Snow  
Snow 0.00 in 0.10 in 7.70 in (1948)
Month to date snowfall 3.0 0.8  
Since 1 July snowfall 26.6 5.9  
Snow Depth 0.00 in    
Sea Level Pressure  
Sea Level Pressure 29.83 in    
Wind  
Wind Speed 7 mph (SSE)    
Max Wind Speed 22 mph    
Max Gust Speed 28 mph    
Visibility 9 miles    
Events Rain    
T = Trace of Precipitation, MM = Missing Value Source: NWS Daily Summary

Daily Weather History Graph

Daily Weather History Graph

Search for Another Location

Airport or City:

Trip Planner

Search our weather history database for the weather conditions in past years. The results will help you decide how hot, cold, wet, or windy it might be!

Date:

Astronomy

Feb. 09, 2010 Rise Set
Actual Time 7:22 AM EST 6:06 PM EST
Civil Twilight 6:56 AM EST 6:32 PM EST
Nautical Twilight 6:26 AM EST 7:02 PM EST
Astronomical Twilight 5:56 AM EST 7:32 PM EST
Moon 4:29 AM EST (2/9) 2:11 PM EST (2/9)
Length of Visible Light 11h 36m
Length of Day
10h 43m
Waning Crescent, 17% of the Moon is Illuminated
Feb 9
Waning Crescent
Feb 13
New
Feb 21
First Quarter
Feb 28
Full
Mar 7
Last Quarter

Hourly Weather History & Observations

Time (EST) Temp. Windchill Dew Point Humidity Pressure Visibility Wind Dir Wind Speed Gust Speed Precip Events Conditions
12:54 AM 37.0 °F 32.4 °F 30.0 °F 76% 30.08 in 10.0 mi SSE 5.8 mph - N/A   Mostly Cloudy
1:54 AM 36.0 °F 29.6 °F 30.0 °F 79% 30.06 in 10.0 mi South 8.1 mph - N/A   Overcast
2:54 AM 36.0 °F 29.6 °F 30.0 °F 79% 30.03 in 10.0 mi South 8.1 mph - N/A   Overcast
3:54 AM 36.0 °F 30.3 °F 30.0 °F 79% 30.00 in 10.0 mi SSE 6.9 mph - N/A   Overcast
4:15 AM 35.6 °F 29.2 °F 30.2 °F 81% 29.98 in 10.0 mi SSE 8.1 mph - N/A   Overcast
4:54 AM 35.1 °F 29.3 °F 28.9 °F 78% 29.99 in 10.0 mi SSE 6.9 mph - N/A   Overcast
5:23 AM 35.6 °F 29.9 °F 28.4 °F 75% 29.98 in 10.0 mi SSE 6.9 mph - N/A   Overcast
5:54 AM 35.1 °F 27.9 °F 28.9 °F 78% 30.00 in 10.0 mi SSE 9.2 mph - N/A   Overcast
6:31 AM 35.6 °F 31.7 °F 28.4 °F 75% 30.00 in 10.0 mi SSE 4.6 mph - N/A   Overcast
6:54 AM 34.0 °F 29.8 °F 28.9 °F 82% 30.00 in 10.0 mi SSE 4.6 mph - N/A   Overcast
7:12 AM 33.8 °F 28.6 °F 28.4 °F 81% 30.00 in 10.0 mi South 5.8 mph - N/A   Overcast
7:35 AM 35.6 °F 30.7 °F 28.4 °F 75% 29.98 in 10.0 mi South 5.8 mph - N/A   Overcast
7:54 AM 34.0 °F 27.2 °F 28.9 °F 82% 30.02 in 9.0 mi South 8.1 mph - N/A   Overcast
8:36 AM 35.6 °F 32.8 °F 28.4 °F 75% 30.01 in 9.0 mi SSE 3.5 mph - N/A   Overcast
8:54 AM 36.0 °F 31.1 °F 28.9 °F 76% 30.02 in 9.0 mi SE 5.8 mph - N/A   Overcast
9:54 AM 36.0 °F 31.1 °F 28.9 °F 76% 30.00 in 9.0 mi ESE 5.8 mph - N/A   Overcast
10:54 AM 37.0 °F 31.0 °F 30.0 °F 76% 29.94 in 10.0 mi ESE 8.1 mph - N/A   Overcast
11:19 AM 37.4 °F 29.3 °F 30.2 °F 75% 29.90 in 10.0 mi SSE 12.7 mph 17.3 mph N/A   Overcast
11:54 AM 37.9 °F 30.0 °F 32.0 °F 79% 29.84 in 10.0 mi South 12.7 mph 19.6 mph 0.00 in   Overcast
12:54 PM 39.0 °F 32.3 °F 33.1 °F 79% 29.83 in 10.0 mi SE 10.4 mph 17.3 mph N/A   Overcast
1:54 PM 39.9 °F 36.7 °F 34.0 °F 79% 29.78 in 10.0 mi Variable 4.6 mph - 0.00 in   Overcast
2:54 PM 37.9 °F 32.7 °F 35.1 °F 89% 29.78 in 4.0 mi SSE 6.9 mph - 0.03 in Rain Light Rain
3:54 PM 39.0 °F 34.8 °F 37.0 °F 93% 29.74 in 4.0 mi SSE 5.8 mph - 0.05 in Rain Light Rain
4:32 PM 39.2 °F 37.0 °F 37.4 °F 93% 29.71 in 5.0 mi SE 3.5 mph - 0.01 in Rain Light Rain
4:54 PM 39.0 °F - 37.9 °F 96% 29.71 in 4.0 mi Calm Calm - 0.01 in Rain Light Rain
5:10 PM 37.4 °F 33.8 °F 37.4 °F 100% 29.69 in 3.0 mi SSE 4.6 mph - 0.00 in   Overcast
5:54 PM 39.0 °F 36.8 °F 37.9 °F 96% 29.68 in 5.0 mi SE 3.5 mph - 0.00 in   Overcast
6:17 PM 39.2 °F 35.0 °F 37.4 °F 93% 29.67 in 6.0 mi SSE 5.8 mph - N/A   Overcast
6:51 PM 39.2 °F 35.9 °F 37.4 °F 93% 29.66 in 10.0 mi SSE 4.6 mph - N/A   Overcast
6:54 PM 39.0 °F 35.7 °F 37.9 °F 96% 29.68 in 9.0 mi SE 4.6 mph - N/A   Overcast
7:01 PM 39.2 °F - 37.4 °F 93% 29.66 in 6.0 mi Calm Calm - N/A   Overcast
7:46 PM 37.4 °F 33.8 °F 37.4 °F 100% 29.65 in 5.0 mi SSE 4.6 mph - N/A   Overcast
7:54 PM 37.9 °F 34.4 °F 37.0 °F 97% 29.67 in 5.0 mi SSE 4.6 mph - N/A   Overcast
8:54 PM 39.0 °F - 37.0 °F 93% 29.66 in 10.0 mi Calm Calm - N/A   Overcast
9:30 PM 35.6 °F 26.2 °F 33.8 °F 93% 29.65 in 10.0 mi North 15.0 mph 20.7 mph N/A   Overcast
9:54 PM 34.0 °F 24.2 °F 30.0 °F 85% 29.67 in 10.0 mi North 15.0 mph 27.6 mph N/A   Mostly Cloudy
10:10 PM 33.8 °F 23.9 °F 30.2 °F 87% 29.64 in 10.0 mi NNW 15.0 mph 23.0 mph N/A   Mostly Cloudy
10:38 PM 32.0 °F 20.5 °F 28.4 °F 87% 29.65 in 10.0 mi North 18.4 mph 27.6 mph N/A   Scattered Clouds
10:54 PM 32.0 °F 20.5 °F 26.1 °F 79% 29.68 in 10.0 mi North 18.4 mph 25.3 mph N/A   Scattered Clouds
11:08 PM 30.2 °F 20.2 °F 24.8 °F 80% 29.66 in 10.0 mi North 12.7 mph - N/A   Mostly Cloudy
11:19 PM 30.2 °F 21.3 °F 21.2 °F 69% 29.65 in 10.0 mi North 10.4 mph 21.9 mph N/A   Mostly Cloudy
11:54 PM 30.0 °F 18.3 °F 19.0 °F 64% 29.67 in 10.0 mi North 17.3 mph 27.6 mph N/A   Clear